Kingman, AZ

4:59 PM MST on June 22, 2017 (GMT -0700)
Kingman

Weather History for KIGM - December, 2012

Change the Weather History Date:

Wednesday, December 5, 2012

  Actual Average Record
Temperature  
Mean Temperature 56 °F 44 °F  
Max Temperature 73 °F 56 °F 73 °F (1939)
Min Temperature 39 °F 33 °F 18 °F (1948)
Degree Days  
Heating Degree Days 9 21  
Month to date heating degree days 50 101  
Since 1 July heating degree days 458 667  
Cooling Degree Days 0 0  
Month to date cooling degree days 0 0  
Year to date cooling degree days 2297 2093  
Growing Degree Days 6 (Base 50)    
Moisture  
Dew Point 30 °F    
Average Humidity 45    
Maximum Humidity 70    
Minimum Humidity 19    
Precipitation  
Precipitation 0.00 in 0.03 in 0.78 in (1951)
Month to date precipitation 0.00 0.12  
Year to date precipitation 6.88 7.77  
Sea Level Pressure  
Sea Level Pressure 30.00 in    
Wind  
Wind Speed 6 mph (SSW)    
Max Wind Speed 20 mph    
Max Gust Speed 23 mph    
Visibility 10 miles    
Events      
T = Trace of Precipitation, MM = Missing Value Source: NWS Daily Summary

Daily Weather History Graph

Daily Weather History Graph

Search for Another Location

Airport or City:

Trip Planner

Search our weather history database for the weather conditions in past years. The results will help you decide how hot, cold, wet, or windy it might be!

Date:

Astronomy

Dec. 05, 2012 Rise Set
Actual Time 7:29 AM MST 5:23 PM MST
Civil Twilight 7:01 AM MST 5:51 PM MST
Nautical Twilight 6:30 AM MST 6:22 PM MST
Astronomical Twilight 5:59 AM MST 6:53 PM MST
Moon No Moon Rise 12:05 PM MST (12/5)
Length of Visible Light 10h 49m
Length of Day
9h 53m
Waning Gibbous, 59% of the Moon is Illuminated
Dec 5
Waning Gibbous
Dec 6
Last Quarter
Dec 13
New
Dec 19
First Quarter
Dec 28
Full

Hourly Weather History & Observations

Time (MST) Temp. Windchill Dew Point Humidity Pressure Visibility Wind Dir Wind Speed Gust Speed Precip Events Conditions
12:51 AM 43.0 °F - 33.1 °F 68% 30.12 in 10.0 mi Calm Calm - N/A   Clear
1:51 AM 42.1 °F - 32.0 °F 67% 30.10 in 10.0 mi Calm Calm - N/A   Clear
2:51 AM 44.1 °F 39.5 °F 32.0 °F 63% 30.07 in 10.0 mi SSE 8.1 mph - N/A   Clear
3:51 AM 43.0 °F 40.3 °F 34.0 °F 71% 30.06 in 10.0 mi SSW 4.6 mph - N/A   Clear
4:51 AM 43.0 °F 40.3 °F 34.0 °F 71% 30.05 in 10.0 mi SSE 4.6 mph - N/A   Clear
5:51 AM 44.1 °F 42.5 °F 30.0 °F 58% 30.06 in 10.0 mi Variable 3.5 mph - N/A   Clear
7:51 AM 41.0 °F - 26.1 °F 55% 30.09 in 10.0 mi Calm Calm - N/A   Clear
8:51 AM 55.0 °F - 28.9 °F 37% 30.06 in 10.0 mi SSE 8.1 mph - N/A   Clear
9:51 AM 64.0 °F - 27.0 °F 25% 30.06 in 10.0 mi Calm Calm - N/A   Clear
10:51 AM 66.0 °F - 30.9 °F 27% 30.04 in 10.0 mi WSW 3.5 mph - N/A   Clear
11:51 AM 69.1 °F - 33.1 °F 26% 30.02 in 10.0 mi WSW 9.2 mph - N/A   Clear
12:51 PM 70.0 °F - 30.9 °F 24% 29.97 in 10.0 mi SW 17.3 mph 23.0 mph N/A   Clear
1:51 PM 73.0 °F - 28.0 °F 19% 29.94 in 10.0 mi SW 15.0 mph - N/A   Clear
2:51 PM 71.1 °F - 28.9 °F 21% 29.93 in 10.0 mi WSW 16.1 mph - N/A   Clear
3:51 PM 70.0 °F - 27.0 °F 20% 29.93 in 10.0 mi SW 15.0 mph - N/A   Clear
4:51 PM 66.9 °F - 28.9 °F 24% 29.92 in 10.0 mi WSW 10.4 mph - N/A   Clear
5:51 PM 61.0 °F - 28.9 °F 30% 29.93 in 10.0 mi WSW 5.8 mph - N/A   Clear
6:51 PM 55.0 °F - 30.0 °F 38% 29.96 in 10.0 mi WSW 3.5 mph - N/A   Clear
7:51 PM 51.1 °F - 30.0 °F 44% 29.97 in 10.0 mi South 4.6 mph - N/A   Clear
8:51 PM 53.1 °F - 32.0 °F 45% 29.94 in 10.0 mi South 8.1 mph - N/A   Clear
9:51 PM 50.0 °F - 30.0 °F 46% 29.92 in 10.0 mi Calm Calm - N/A   Clear
10:51 PM 48.9 °F - 30.9 °F 50% 29.91 in 10.0 mi Calm Calm - N/A   Clear
11:51 PM 45.0 °F 43.5 °F 28.9 °F 53% 29.90 in 10.0 mi ESE 3.5 mph - N/A   Clear